Regional Weather Roundup
Issued by NWS

Home | Current Version | Previous Version | Text Only | Print | Product List | Glossary On
Versions: 1 2 3 4 5 6 7 8 9 10 11 12 13 14 15 16 17 18 19 20 21 22 23 24 25 26 27 28 29 30 31 32 33 34 35 36 37 38 39 40 41 42 43 44 45 46 47 48 49 50
000
ASUS43 KDTX 271301
RWRMI
MICHIGAN HOURLY REGIONAL WEATHER ROUNDUP
NATIONAL WEATHER SERVICE DETROIT/PONTIAC MI
900 AM EDT MON APR 27 2015

NOTE: "FAIR" INDICATES FEW OR NO CLOUDS BELOW 12,000 FEET WITH NO
SIGNIFICANT WEATHER AND/OR OBSTRUCTION TO VISIBILITY.

MIZ047>049-052>055-059>063-066>070-074>076-081>083-271400-
SOUTHEAST LOWER MICHIGAN

CITY           SKY/WX    TMP DP  RH WIND       PRES   REMARKS
ADRIAN         MOSUNNY   45  35  68 NE15      29.96R
ALMA           CLOUDY    44  35  71 N14       30.01R
ANN ARBOR      CLOUDY    43  36  76 N15G21    29.95S
BAD AXE        CLOUDY    38  35  88 N14       29.98R WCI  30
CARO           DRIZZLE   39  37  93 N8        29.98S WCI  34
DETROIT CITY   CLOUDY    41  35  79 N16       29.95S
DETROIT        CLOUDY    46  35  65 NW12      29.95S
FLINT          CLOUDY    42  36  79 N9        29.99R
HILLSDALE      SUNNY     43  35  71 N12       29.96R
HOWELL         CLOUDY    40  37  86 N7        29.97R

CITY           SKY/WX    TMP DP  RH WIND       PRES   REMARKS
JACKSON        PTSUNNY   44  33  65 N12       29.96S
LAMBERTVILLE   CLOUDY    45  34  65 N6        29.96R
LANSING        CLOUDY    44  34  67 N12       29.99S
LAPEER         LGT RAIN  39  35  86 N8        29.98R WCI  34
MASON          CLOUDY    43  33  68 N10       29.97S
MONROE         CLOUDY    45  36  70 N10G16    29.94R
MT. CLEMENS    DRIZZLE   41  37  86 N10       29.93R
PONTIAC        CLOUDY    40  34  79 N14       29.95R WCI  32
PORT HOPE        N/A     39  35  86 N10G18    29.96R WCI  32
PORT HURON     LGT RAIN  39  36  87 N6        29.96R WCI  35
TRI CITIES     CLOUDY    44  35  70 N10       30.01R
MIDLAND        CLOUDY    44  32  63 N8        30.00R
TROY           CLOUDY    42  35  73 N13G22    29.97R
SAGINAW HB     CLOUDY    41  36  81 N15       29.99S
$$
MIZ043>046-050>051-056>058-064>065-071>073-077>080-271400-
SOUTHWEST LOWER MICHIGAN

CITY           SKY/WX    TMP DP  RH WIND       PRES   REMARKS
BATTLE CREEK   MOSUNNY   44  33  65 N14       29.99R
BENTON HARBOR  SUNNY     41  35  79 VRB6      30.04R
BIG RAPIDS     CLOUDY    43  34  70 N9G16     30.02R
COLDWATER      SUNNY     43  32  65 N8        29.97R
FREMONT        PTSUNNY   43  33  69 N13       30.03R
HOLLAND        CLOUDY    46  34  62 VRB6      30.03R
GRAND RAPIDS   PTSUNNY   45  33  63 N12       30.01S
IONIA          CLOUDY    44  34  69 N9        29.99S
KALAMAZOO      PTSUNNY   44  33  65 N13       30.00R
LUDINGTON      CLOUDY    42  35  75 N10       30.08R
MARSHALL       SUNNY     42  32  68 N3        29.97S
MOUNT PLEASANT CLOUDY    44  33  67 N13       30.01R
MUSKEGON       PTSUNNY   45  34  65 N10       30.04S
SOUTH HAVEN    CLOUDY    42  36  78 N8        30.03R
$$
MIZ016>042-271400-
NORTHERN LOWER MICHIGAN

CITY           SKY/WX    TMP DP  RH WIND       PRES   REMARKS
BEAVER ISLAND  MOSUNNY   44  33  66 N13       30.07S
BELLAIRE       CLOUDY    42  34  72 N5        30.06R
CADILLAC       CLOUDY    40  33  76 N9G17     30.02R WCI  34
CHARLEVOIX     CLOUDY    39  35  84 N7        30.09S WCI  34
FRANKFORT      CLOUDY    43  32  65 N5        30.09R
GAYLORD        CLOUDY    39  33  79 NE9       30.02R WCI  33
GRAYLING       CLOUDY    40  32  71 N10       30.02S WCI  34
HARBOR SPRINGS PTSUNNY   43  33  69 N8        30.05R
HOUGHTON LAKE  CLOUDY    41  32  70 N12       30.01R
MANISTEE       CLOUDY    41  34  75 NW7       30.09R
OSCODA         CLOUDY    42  35  74 N12G18    29.99R
PELLSTON       PTSUNNY   43  33  68 N14       30.05S
ROGERS CITY    CLOUDY    41  35  79 NW9G17    30.04R
TRAVERSE CITY  CLOUDY    42  34  73 N10       30.05R
$$
MIZ007>008-015-271400-
EASTERN UPPER MICHIGAN

CITY           SKY/WX    TMP DP  RH WIND       PRES   REMARKS
KINROSS        MOSUNNY   41  36  81 N7        30.05S
MACKINAC ISLAN CLOUDY    41  33  73 N9        30.05S
NEWBERRY       CLOUDY    39  33  79 N13       30.08R WCI  31
S. S. MARIE    PTSUNNY   43  32  65 VRB7      30.05R
$$
MIZ004>006-011>014-085-271400-
CENTRAL UPPER MICHIGAN

CITY           SKY/WX    TMP DP  RH WIND       PRES   REMARKS
MANISTIQUE     CLOUDY    44  35  70 N12G17    30.09S
ESCANABA       MOSUNNY   43  30  61 N10       30.12R
MENOMINEE      SUNNY     43  28  56 N10       30.13R
SAWYER-GWINN   PTSUNNY   39  30  70 N14       30.12S WCI  31
$$
MIZ001>003-009>011-084-271400-
WESTERN UPPER MICHIGAN

CITY           SKY/WX    TMP DP  RH WIND       PRES   REMARKS
IRON MOUNTAIN  SUNNY     42  29  59 NW10      30.13R
HOUGHTON       SUNNY     40  31  70 NW8       30.18R WCI  34
COPPER HARBOR    N/A     38  31  76 N8        30.19R WCI  32
IRONWOOD       SUNNY     37  34  87 W5        30.19S WCI  34
$$

ABBREVIATIONS USED IN REMARKS
   TC - TEMPERATURE IN CELSIUS
  WCI - WIND CHILL INDEX
   HX - HEAT INDEX
  VSB - VISIBILITY




USA.gov is the U.S. government's official web portal to all federal, state and local government web resources and services.